Time,TemperatureF,DewpointF,PressureIn,WindDirection,WindDirectionDegrees,WindSpeedMPH,WindSpeedGustMPH,Humidity,HourlyPrecipIn,Conditions,Clouds,dailyrainin,SoftwareType,DateUTC
2014-02-28 00:03:00,57.6,21.1,28.85,NE,53,15.9,15.9,24,0.00,,---,0.00,VWS V14.01,2014-02-28 08:03:00,
2014-02-28 00:09:00,57.6,21.1,28.85,ENE,59,18.1,18.1,24,0.00,,---,0.00,VWS V14.01,2014-02-28 08:09:00,
2014-02-28 00:14:00,57.2,21.7,28.85,ENE,71,17.2,17.2,25,0.00,,---,0.00,VWS V14.01,2014-02-28 08:14:00,
2014-02-28 00:19:00,56.7,21.3,28.85,ENE,60,15.4,20.1,25,0.00,,---,0.00,VWS V14.01,2014-02-28 08:19:00,
2014-02-28 00:24:00,56.7,21.3,28.85,ENE,69,15.9,16.3,25,0.00,,---,0.00,VWS V14.01,2014-02-28 08:24:00,
2014-02-28 00:29:00,56.5,21.1,28.82,East,83,12.1,14.3,25,0.00,,---,0.00,VWS V14.01,2014-02-28 08:29:00,
2014-02-28 00:34:00,57.6,22.0,28.82,ENE,76,11.2,11.6,25,0.00,,---,0.00,VWS V14.01,2014-02-28 08:34:00,
2014-02-28 00:39:00,57.2,21.7,28.82,East,82,6.3,9.2,25,0.00,,---,0.00,VWS V14.01,2014-02-28 08:39:00,
2014-02-28 00:44:00,57.4,18.9,28.82,ESE,102,9.6,10.5,22,0.00,,---,0.00,VWS V14.01,2014-02-28 08:44:00,
2014-02-28 00:49:00,58.5,21.8,28.82,ENE,70,8.3,8.3,24,0.00,,---,0.00,VWS V14.01,2014-02-28 08:49:00,
2014-02-28 00:54:00,57.2,20.8,28.82,East,92,5.4,8.3,24,0.00,,---,0.00,VWS V14.01,2014-02-28 08:54:00,
2014-02-28 00:59:00,60.8,18.3,28.82,ESE,105,8.7,11.2,19,0.00,,---,0.00,VWS V14.01,2014-02-28 08:59:00,
2014-02-28 01:04:00,61.3,18.8,28.82,SE,125,10.1,10.1,19,0.00,,---,0.00,VWS V14.01,2014-02-28 09:04:00,
2014-02-28 01:09:00,61.2,18.6,28.82,SE,125,7.4,7.4,19,0.00,,---,0.00,VWS V14.01,2014-02-28 09:09:00,
2014-02-28 01:14:00,61.2,18.6,28.82,SE,137,11.0,15.2,19,0.00,,---,0.00,VWS V14.01,2014-02-28 09:14:00,
2014-02-28 01:20:00,59.2,17.0,28.82,SE,138,8.7,8.7,19,0.00,,---,0.00,VWS V14.01,2014-02-28 09:20:00,
2014-02-28 01:25:00,57.2,18.7,28.82,East,90,14.3,14.3,22,0.00,,---,0.00,VWS V14.01,2014-02-28 09:25:00,
2014-02-28 01:31:00,55.6,21.3,28.82,SE,136,9.2,9.6,26,0.00,,---,0.00,VWS V14.01,2014-02-28 09:31:00,
2014-02-28 01:36:00,54.9,24.8,28.82,SE,126,12.1,12.1,31,0.00,,---,0.00,VWS V14.01,2014-02-28 09:36:00,
2014-02-28 01:41:00,54.1,28.5,28.82,East,101,8.3,8.3,37,0.00,,---,0.00,VWS V14.01,2014-02-28 09:41:00,
2014-02-28 01:46:00,54.1,28.5,28.79,ESE,103,12.5,12.5,37,0.00,,---,0.00,VWS V14.01,2014-02-28 09:46:00,
2014-02-28 01:51:00,54.1,28.5,28.79,East,100,11.6,11.6,37,0.00,,---,0.00,VWS V14.01,2014-02-28 09:51:00,
2014-02-28 01:56:00,54.7,27.6,28.79,East,101,11.0,18.6,35,0.00,,---,0.00,VWS V14.01,2014-02-28 09:56:00,
2014-02-28 02:01:00,55.6,28.4,28.76,ESE,121,14.8,14.8,35,0.00,,---,0.00,VWS V14.01,2014-02-28 10:01:00,
2014-02-28 02:06:00,55.4,28.2,28.76,SE,129,10.1,14.8,35,0.00,,---,0.00,VWS V14.01,2014-02-28 10:06:00,
2014-02-28 02:11:00,55.2,28.1,28.76,SE,141,18.6,18.6,35,0.00,,---,0.00,VWS V14.01,2014-02-28 10:11:00,
2014-02-28 02:16:00,54.9,27.8,28.76,ESE,102,22.4,22.4,35,0.00,,---,0.00,VWS V14.01,2014-02-28 10:16:00,
2014-02-28 02:21:00,54.7,28.3,28.76,ESE,106,21.0,21.0,36,0.00,,---,0.00,VWS V14.01,2014-02-28 10:21:00,
2014-02-28 02:26:00,54.7,28.9,28.76,ESE,108,18.1,18.6,37,0.00,,---,0.00,VWS V14.01,2014-02-28 10:26:00,
2014-02-28 02:31:00,54.1,29.1,28.73,East,83,15.9,18.6,38,0.00,,---,0.00,VWS V14.01,2014-02-28 10:31:00,
2014-02-28 02:36:00,54.0,30.2,28.73,SE,133,12.5,17.2,40,0.00,,---,0.00,VWS V14.01,2014-02-28 10:36:00,
2014-02-28 02:41:00,53.8,31.2,28.73,ESE,108,14.3,14.3,42,0.00,,---,0.00,VWS V14.01,2014-02-28 10:41:00,
2014-02-28 02:46:00,54.5,31.3,28.73,SE,134,13.0,19.5,41,0.00,,---,0.00,VWS V14.01,2014-02-28 10:46:00,
2014-02-28 02:51:00,54.3,31.7,28.76,ESE,102,15.9,15.9,42,0.00,,---,0.00,VWS V14.01,2014-02-28 10:51:00,
2014-02-28 02:56:00,54.5,30.7,28.76,East,96,13.9,18.1,40,0.00,,---,0.00,VWS V14.01,2014-02-28 10:56:00,
2014-02-28 03:01:00,54.5,30.7,28.73,East,83,19.5,27.5,40,0.00,,---,0.00,VWS V14.01,2014-02-28 11:01:00,
2014-02-28 03:07:00,54.3,31.7,28.73,ESE,105,19.0,21.0,42,0.00,,---,0.00,VWS V14.01,2014-02-28 11:07:00,
2014-02-28 03:12:00,54.1,32.2,28.73,East,99,20.6,20.6,43,0.00,,---,0.00,VWS V14.01,2014-02-28 11:12:00,
2014-02-28 03:18:00,54.0,33.1,28.73,East,101,16.8,17.7,45,0.00,,---,0.00,VWS V14.01,2014-02-28 11:18:00,
2014-02-28 03:23:00,54.0,33.1,28.73,ESE,120,13.9,15.2,45,0.00,,---,0.00,VWS V14.01,2014-02-28 11:23:00,
2014-02-28 03:28:00,54.0,33.7,28.73,SE,139,19.9,20.1,46,0.00,,---,0.00,VWS V14.01,2014-02-28 11:28:00,
2014-02-28 03:33:00,53.8,34.6,28.73,East,98,16.3,16.3,48,0.00,,---,0.00,VWS V14.01,2014-02-28 11:33:00,
2014-02-28 03:38:00,53.4,34.8,28.73,East,92,11.2,12.5,49,0.00,,---,0.00,VWS V14.01,2014-02-28 11:38:00,
2014-02-28 03:43:00,53.2,34.6,28.73,ENE,66,11.2,15.9,49,0.00,,---,0.00,VWS V14.01,2014-02-28 11:43:00,
2014-02-28 03:49:00,53.1,34.4,28.73,ESE,107,13.0,13.0,49,0.00,,---,0.00,VWS V14.01,2014-02-28 11:49:00,
2014-02-28 03:54:00,53.1,35.4,28.73,SSW,211,8.3,11.6,51,0.00,,---,0.00,VWS V14.01,2014-02-28 11:54:00,
2014-02-28 03:59:00,52.9,38.1,28.73,WSW,252,12.5,17.7,57,0.00,,---,0.00,VWS V14.01,2014-02-28 11:59:00,
2014-02-28 04:04:00,53.2,41.0,28.76,NW,313,7.4,7.4,63,0.00,,---,0.00,VWS V14.01,2014-02-28 12:04:00,
2014-02-28 04:09:00,53.2,42.2,28.76,NNW,329,5.4,5.4,66,0.00,,---,0.00,VWS V14.01,2014-02-28 12:09:00,
2014-02-28 04:14:00,53.1,42.8,28.79,WNW,293,0.0,2.7,68,0.00,,---,0.00,VWS V14.01,2014-02-28 12:14:00,
2014-02-28 04:19:00,52.9,43.0,28.79,WNW,293,0.0,0.0,69,0.00,,---,0.00,VWS V14.01,2014-02-28 12:19:00,
2014-02-28 04:25:00,53.2,44.5,28.79,ENE,59,5.8,6.3,72,0.00,,---,0.00,VWS V14.01,2014-02-28 12:25:00,
2014-02-28 04:30:00,53.2,44.8,28.76,ENE,65,6.9,7.4,73,0.00,,---,0.00,VWS V14.01,2014-02-28 12:30:00,
2014-02-28 04:35:00,53.2,45.2,28.76,ENE,67,7.4,8.3,74,0.00,,---,0.00,VWS V14.01,2014-02-28 12:35:00,
2014-02-28 04:40:00,53.2,45.2,28.76,NE,56,7.8,8.3,74,0.00,,---,0.00,VWS V14.01,2014-02-28 12:40:00,
2014-02-28 04:45:00,53.2,44.5,28.73,East,81,10.1,10.1,72,0.00,,---,0.00,VWS V14.01,2014-02-28 12:45:00,
2014-02-28 04:50:00,53.2,43.3,28.73,ESE,103,10.5,11.2,69,0.00,,---,0.00,VWS V14.01,2014-02-28 12:50:00,
2014-02-28 04:55:00,53.8,40.2,28.73,ENE,58,16.8,16.8,60,0.00,,---,0.00,VWS V14.01,2014-02-28 12:55:00,
2014-02-28 05:00:00,53.4,41.6,28.73,ENE,66,18.1,18.6,64,0.00,,---,0.00,VWS V14.01,2014-02-28 13:00:00,
2014-02-28 05:05:00,53.2,42.6,28.73,ENE,65,13.9,16.3,67,0.00,,---,0.00,VWS V14.01,2014-02-28 13:05:00,
2014-02-28 05:10:00,53.2,42.6,28.73,ENE,60,14.8,15.2,67,0.00,,---,0.00,VWS V14.01,2014-02-28 13:10:00,
2014-02-28 05:15:00,53.1,42.8,28.73,ENE,62,15.2,16.3,68,0.00,,---,0.00,VWS V14.01,2014-02-28 13:15:00,
2014-02-28 05:20:00,53.2,42.6,28.73,ENE,66,13.4,15.2,67,0.00,,---,0.00,VWS V14.01,2014-02-28 13:20:00,
2014-02-28 05:25:00,53.2,42.6,28.73,ENE,70,15.9,15.9,67,0.00,,---,0.00,VWS V14.01,2014-02-28 13:25:00,
2014-02-28 05:30:00,53.2,43.0,28.73,ENE,63,15.2,16.3,68,0.00,,---,0.00,VWS V14.01,2014-02-28 13:30:00,
2014-02-28 05:35:00,53.4,42.0,28.73,ENE,68,16.8,16.8,65,0.00,,---,0.00,VWS V14.01,2014-02-28 13:35:00,
2014-02-28 05:40:00,53.4,40.3,28.73,ENE,66,14.3,15.4,61,0.00,,---,0.00,VWS V14.01,2014-02-28 13:40:00,
2014-02-28 05:46:00,54.0,38.2,28.70,ENE,66,18.1,18.6,55,0.00,,---,0.00,VWS V14.01,2014-02-28 13:46:00,
2014-02-28 05:51:00,53.8,36.1,28.70,ENE,60,16.8,16.8,51,0.00,,---,0.00,VWS V14.01,2014-02-28 13:51:00,
2014-02-28 05:56:00,53.4,37.7,28.70,ENE,64,15.2,15.9,55,0.00,,---,0.00,VWS V14.01,2014-02-28 13:56:00,
2014-02-28 06:01:00,53.1,39.1,28.70,ENE,64,10.5,13.0,59,0.00,,---,0.00,VWS V14.01,2014-02-28 14:01:00,
2014-02-28 06:06:00,53.1,40.0,28.70,NE,55,20.1,20.1,61,0.00,,---,0.00,VWS V14.01,2014-02-28 14:06:00,
2014-02-28 06:11:00,53.1,38.7,28.70,ENE,68,23.7,23.7,58,0.00,,---,0.00,VWS V14.01,2014-02-28 14:11:00,
2014-02-28 06:16:00,53.2,39.3,28.70,ENE,62,17.2,19.5,59,0.00,,---,0.00,VWS V14.01,2014-02-28 14:16:00,
2014-02-28 06:21:00,53.4,39.0,28.70,South,174,5.4,14.8,58,0.00,,---,0.00,VWS V14.01,2014-02-28 14:21:00,
2014-02-28 06:26:00,53.4,39.9,28.70,SW,218,7.8,10.5,60,0.00,,---,0.00,VWS V14.01,2014-02-28 14:26:00,
2014-02-28 06:31:00,53.4,39.9,28.70,SSE,157,8.7,8.7,60,0.00,,---,0.00,VWS V14.01,2014-02-28 14:31:00,
2014-02-28 06:36:00,54.3,36.1,28.70,SE,134,12.5,13.0,50,0.00,,---,0.00,VWS V14.01,2014-02-28 14:36:00,
2014-02-28 06:42:00,54.3,38.5,28.70,ESE,116,6.9,8.3,55,0.00,,---,0.00,VWS V14.01,2014-02-28 14:42:00,
2014-02-28 06:47:00,54.0,40.0,28.70,East,87,5.4,5.4,59,0.00,,---,0.00,VWS V14.01,2014-02-28 14:47:00,
2014-02-28 06:52:00,53.6,40.1,28.70,SE,130,5.8,5.8,60,0.00,,---,0.00,VWS V14.01,2014-02-28 14:52:00,
2014-02-28 06:57:00,53.8,39.8,28.70,SE,130,5.8,6.7,59,0.00,,---,0.00,VWS V14.01,2014-02-28 14:57:00,
2014-02-28 07:02:00,54.0,40.0,28.70,ESE,121,0.0,0.0,59,0.00,,---,0.00,VWS V14.01,2014-02-28 15:02:00,
2014-02-28 07:08:00,54.0,40.0,28.70,ESE,121,0.0,0.0,59,0.00,,---,0.00,VWS V14.01,2014-02-28 15:08:00,
2014-02-28 07:13:00,54.3,40.3,28.70,SSE,159,2.7,4.5,59,0.00,,---,0.00,VWS V14.01,2014-02-28 15:13:00,
2014-02-28 07:18:00,54.3,39.4,28.70,SSW,199,3.6,4.9,57,0.00,,---,0.00,VWS V14.01,2014-02-28 15:18:00,
2014-02-28 07:23:00,54.3,39.0,28.70,South,177,0.0,0.0,56,0.00,,---,0.00,VWS V14.01,2014-02-28 15:23:00,
2014-02-28 07:28:00,54.3,38.5,28.70,South,177,0.0,0.0,55,0.00,,---,0.00,VWS V14.01,2014-02-28 15:28:00,
2014-02-28 07:33:00,55.4,39.0,28.70,North,351,3.6,5.4,54,0.00,,---,0.00,VWS V14.01,2014-02-28 15:33:00,
2014-02-28 07:38:00,55.4,38.1,28.70,North,351,0.0,0.0,52,0.00,,---,0.00,VWS V14.01,2014-02-28 15:38:00,
2014-02-28 07:43:00,55.4,39.5,28.73,SW,222,4.0,5.8,55,0.00,,---,0.00,VWS V14.01,2014-02-28 15:43:00,
2014-02-28 07:48:00,55.4,40.0,28.73,West,259,6.3,6.3,56,0.00,,---,0.00,VWS V14.01,2014-02-28 15:48:00,
2014-02-28 07:53:00,55.4,40.0,28.73,WSW,256,4.9,4.9,56,0.00,,---,0.00,VWS V14.01,2014-02-28 15:53:00,
2014-02-28 07:58:00,55.4,37.1,28.73,South,189,10.5,12.5,50,0.00,,---,0.00,VWS V14.01,2014-02-28 15:58:00,
2014-02-28 08:03:00,55.4,35.0,28.73,SSW,209,8.3,10.1,46,0.00,,---,0.00,VWS V14.01,2014-02-28 16:03:00,
2014-02-28 08:08:00,55.4,35.0,28.73,SSW,193,8.3,8.3,46,0.00,,---,0.00,VWS V14.01,2014-02-28 16:08:00,
2014-02-28 08:13:00,55.4,35.0,28.73,South,176,8.3,8.3,46,0.00,,---,0.00,VWS V14.01,2014-02-28 16:13:00,
2014-02-28 08:18:00,56.8,34.6,28.73,SSW,212,8.3,9.2,43,0.00,,---,0.00,VWS V14.01,2014-02-28 16:18:00,
2014-02-28 08:23:00,56.8,30.2,28.73,South,175,8.7,10.1,36,0.00,,---,0.00,VWS V14.01,2014-02-28 16:23:00,
2014-02-28 08:28:00,57.2,30.5,28.73,SW,214,13.0,13.0,36,0.00,,---,0.00,VWS V14.01,2014-02-28 16:28:00,
2014-02-28 08:34:00,57.7,25.7,28.73,SSW,203,9.2,15.9,29,0.00,,---,0.00,VWS V14.01,2014-02-28 16:34:00,
2014-02-28 08:40:00,57.6,25.6,28.73,South,186,14.3,14.3,29,0.00,,---,0.00,VWS V14.01,2014-02-28 16:40:00,
2014-02-28 08:45:00,57.6,26.4,28.73,South,180,12.1,12.1,30,0.00,,---,0.00,VWS V14.01,2014-02-28 16:45:00,
2014-02-28 08:50:00,57.6,24.7,28.73,SSW,192,17.7,17.7,28,0.00,,---,0.00,VWS V14.01,2014-02-28 16:50:00,
2014-02-28 08:55:00,57.7,24.9,28.73,SSW,204,7.4,12.5,28,0.00,,---,0.00,VWS V14.01,2014-02-28 16:55:00,
2014-02-28 09:00:00,57.7,24.9,28.73,South,180,7.8,8.7,28,0.00,,---,0.00,VWS V14.01,2014-02-28 17:00:00,
2014-02-28 09:05:00,57.7,24.9,28.73,South,186,9.2,9.2,28,0.00,,---,0.00,VWS V14.01,2014-02-28 17:05:00,
2014-02-28 09:10:00,57.9,25.0,28.73,SSW,197,5.4,10.5,28,0.00,,---,0.00,VWS V14.01,2014-02-28 17:10:00,
2014-02-28 09:15:00,57.7,24.0,28.73,SSW,195,7.4,7.8,27,0.00,,---,0.00,VWS V14.01,2014-02-28 17:15:00,
2014-02-28 09:20:00,57.7,24.0,28.73,South,181,7.4,7.8,27,0.00,,---,0.00,VWS V14.01,2014-02-28 17:20:00,
2014-02-28 09:25:00,58.1,24.3,28.73,WSW,240,6.9,8.3,27,0.00,,---,0.00,VWS V14.01,2014-02-28 17:25:00,
2014-02-28 09:30:00,58.1,24.3,28.73,South,189,7.4,7.4,27,0.00,,---,0.00,VWS V14.01,2014-02-28 17:30:00,
2014-02-28 09:35:00,59.0,25.1,28.73,SSE,168,7.8,7.8,27,0.00,,---,0.00,VWS V14.01,2014-02-28 17:35:00,
2014-02-28 09:40:00,59.0,25.1,28.73,SSW,202,6.7,7.8,27,0.00,,---,0.00,VWS V14.01,2014-02-28 17:40:00,
2014-02-28 09:45:00,59.4,24.5,28.76,SSW,194,5.8,7.4,26,0.00,,---,0.00,VWS V14.01,2014-02-28 17:45:00,
2014-02-28 09:50:00,59.4,24.5,28.76,SSW,203,11.2,11.2,26,0.00,,---,0.00,VWS V14.01,2014-02-28 17:50:00,
2014-02-28 09:55:00,59.4,24.5,28.76,SE,145,7.8,11.0,26,0.00,,---,0.00,VWS V14.01,2014-02-28 17:55:00,
2014-02-28 10:00:00,59.4,24.5,28.76,South,173,5.8,9.2,26,0.00,,---,0.00,VWS V14.01,2014-02-28 18:00:00,
2014-02-28 10:05:00,59.4,23.6,28.76,SSE,151,7.4,7.4,25,0.00,,---,0.00,VWS V14.01,2014-02-28 18:05:00,
2014-02-28 10:11:00,59.4,23.6,28.76,SSE,160,11.0,14.3,25,0.00,,---,0.00,VWS V14.01,2014-02-28 18:11:00,
2014-02-28 10:16:00,59.4,22.6,28.73,SSE,162,9.2,12.1,24,0.00,,---,0.00,VWS V14.01,2014-02-28 18:16:00,
2014-02-28 10:21:00,60.4,23.5,28.73,South,190,7.8,10.5,24,0.00,,---,0.00,VWS V14.01,2014-02-28 18:21:00,
2014-02-28 10:26:00,60.1,23.2,28.73,SSE,163,8.7,9.6,24,0.00,,---,0.00,VWS V14.01,2014-02-28 18:26:00,
2014-02-28 10:31:00,60.1,23.2,28.73,SSW,201,8.3,8.7,24,0.00,,---,0.00,VWS V14.01,2014-02-28 18:31:00,
2014-02-28 10:36:00,59.5,23.7,28.73,South,181,9.2,9.2,25,0.00,,---,0.00,VWS V14.01,2014-02-28 18:36:00,
2014-02-28 10:41:00,59.5,23.7,28.73,South,190,7.8,11.6,25,0.00,,---,0.00,VWS V14.01,2014-02-28 18:41:00,
2014-02-28 10:46:00,59.4,23.6,28.76,South,180,10.1,10.1,25,0.00,,---,0.00,VWS V14.01,2014-02-28 18:46:00,
2014-02-28 10:51:00,59.2,23.4,28.76,SSW,202,8.3,11.2,25,0.00,,---,0.00,VWS V14.01,2014-02-28 18:51:00,
2014-02-28 10:56:00,58.1,22.5,28.76,South,185,8.7,8.7,25,0.00,,---,0.00,VWS V14.01,2014-02-28 18:56:00,
2014-02-28 11:01:00,58.5,23.7,28.76,SSW,194,7.8,7.8,26,0.00,,---,0.00,VWS V14.01,2014-02-28 19:01:00,
2014-02-28 11:06:00,58.5,22.8,28.76,SSW,206,7.8,7.8,25,0.00,,---,0.00,VWS V14.01,2014-02-28 19:06:00,
2014-02-28 11:11:00,58.5,22.8,28.76,SSW,205,9.2,11.2,25,0.00,,---,0.00,VWS V14.01,2014-02-28 19:11:00,
2014-02-28 11:16:00,58.5,22.8,28.76,SSW,202,9.2,10.1,25,0.00,,---,0.00,VWS V14.01,2014-02-28 19:16:00,
2014-02-28 11:21:00,59.0,23.2,28.76,SSW,196,6.7,6.7,25,0.00,,---,0.00,VWS V14.01,2014-02-28 19:21:00,
2014-02-28 11:26:00,57.0,22.5,28.76,SW,226,10.5,10.5,26,0.00,,---,0.00,VWS V14.01,2014-02-28 19:26:00,
2014-02-28 11:31:00,56.1,21.7,28.73,SSW,208,6.9,7.4,26,0.00,,---,0.00,VWS V14.01,2014-02-28 19:31:00,
2014-02-28 11:36:00,56.1,24.3,28.73,SW,230,9.6,9.6,29,0.00,,---,0.00,VWS V14.01,2014-02-28 19:36:00,
2014-02-28 11:41:00,56.1,24.3,28.73,SSW,211,3.6,4.9,29,0.00,,---,0.00,VWS V14.01,2014-02-28 19:41:00,
2014-02-28 11:47:00,56.1,22.6,28.73,SSW,210,6.9,6.9,27,0.00,,---,0.00,VWS V14.01,2014-02-28 19:47:00,
2014-02-28 11:52:00,57.6,29.4,28.73,SW,236,6.9,9.2,34,0.00,,---,0.00,VWS V14.01,2014-02-28 19:52:00,
2014-02-28 11:57:00,57.6,29.4,28.73,SW,222,7.8,8.3,34,0.00,,---,0.00,VWS V14.01,2014-02-28 19:57:00,
2014-02-28 12:02:00,54.9,33.4,28.73,SW,236,5.4,6.7,44,0.00,,---,0.00,VWS V14.01,2014-02-28 20:02:00,
2014-02-28 12:07:00,54.9,33.4,28.73,SSW,212,7.8,7.8,44,0.00,,---,0.00,VWS V14.01,2014-02-28 20:07:00,
2014-02-28 12:12:00,55.9,34.4,28.73,SW,233,7.8,7.8,44,0.00,,---,0.00,VWS V14.01,2014-02-28 20:12:00,
2014-02-28 12:17:00,56.3,34.7,28.73,SW,220,8.3,9.2,44,0.00,,---,0.00,VWS V14.01,2014-02-28 20:17:00,
2014-02-28 12:22:00,56.3,34.7,28.73,SW,216,10.1,10.1,44,0.00,,---,0.00,VWS V14.01,2014-02-28 20:22:00,
2014-02-28 12:27:00,56.3,34.7,28.73,SW,226,10.1,10.1,44,0.00,,---,0.00,VWS V14.01,2014-02-28 20:27:00,
2014-02-28 12:32:00,57.2,35.5,28.73,SW,215,7.8,7.8,44,0.00,,---,0.00,VWS V14.01,2014-02-28 20:32:00,
2014-02-28 12:37:00,57.6,35.8,28.73,WSW,248,9.2,9.2,44,0.00,,---,0.00,VWS V14.01,2014-02-28 20:37:00,
2014-02-28 12:42:00,57.6,32.8,28.70,WSW,237,7.8,7.8,39,0.00,,---,0.00,VWS V14.01,2014-02-28 20:42:00,
2014-02-28 12:48:00,57.6,32.8,28.70,WSW,239,5.8,6.7,39,0.00,,---,0.00,VWS V14.01,2014-02-28 20:48:00,
2014-02-28 12:53:00,57.6,32.2,28.70,West,260,4.9,5.4,38,0.00,,---,0.00,VWS V14.01,2014-02-28 20:53:00,
2014-02-28 12:58:00,57.6,32.2,28.70,WSW,246,6.9,6.9,38,0.00,,---,0.00,VWS V14.01,2014-02-28 20:58:00,
2014-02-28 13:04:00,57.6,32.2,28.70,West,264,6.7,6.7,38,0.00,,---,0.00,VWS V14.01,2014-02-28 21:04:00,
2014-02-28 13:09:00,57.6,32.2,28.70,WNW,287,8.7,8.7,38,0.00,,---,0.00,VWS V14.01,2014-02-28 21:09:00,
2014-02-28 13:14:00,57.2,31.8,28.70,West,267,8.3,8.3,38,0.00,,---,0.00,VWS V14.01,2014-02-28 21:14:00,
2014-02-28 13:19:00,56.8,31.5,28.70,West,269,5.4,6.7,38,0.00,,---,0.00,VWS V14.01,2014-02-28 21:19:00,
2014-02-28 13:24:00,56.7,31.4,28.70,West,270,7.8,7.8,38,0.00,,---,0.00,VWS V14.01,2014-02-28 21:24:00,
2014-02-28 13:29:00,56.8,31.5,28.70,WNW,284,7.4,7.8,38,0.00,,---,0.00,VWS V14.01,2014-02-28 21:29:00,
2014-02-28 13:34:00,56.8,36.3,28.70,West,262,3.1,4.5,46,0.00,,---,0.00,VWS V14.01,2014-02-28 21:34:00,
2014-02-28 13:39:00,57.2,36.6,28.70,West,267,5.8,5.8,46,0.00,,---,0.00,VWS V14.01,2014-02-28 21:39:00,
2014-02-28 13:45:00,57.4,37.3,28.70,WNW,300,0.0,6.3,47,0.00,,---,0.00,VWS V14.01,2014-02-28 21:45:00,
2014-02-28 13:50:00,57.4,36.8,28.70,WSW,255,3.1,3.1,46,0.00,,---,0.00,VWS V14.01,2014-02-28 21:50:00,
2014-02-28 13:55:00,57.0,36.5,28.70,SSW,211,4.5,4.5,46,0.00,,---,0.00,VWS V14.01,2014-02-28 21:55:00,
2014-02-28 14:00:00,57.0,36.5,28.70,ENE,71,4.9,4.9,46,0.00,,---,0.00,VWS V14.01,2014-02-28 22:00:00,
2014-02-28 14:05:00,57.4,36.8,28.70,North,7,4.0,5.4,46,0.00,,---,0.00,VWS V14.01,2014-02-28 22:05:00,
2014-02-28 14:10:00,57.9,37.3,28.70,North,351,0.0,5.4,46,0.00,,---,0.00,VWS V14.01,2014-02-28 22:10:00,
2014-02-28 14:15:00,57.7,31.0,28.70,NW,313,6.7,6.7,36,0.00,,---,0.00,VWS V14.01,2014-02-28 22:15:00,
2014-02-28 14:20:00,58.8,32.0,28.70,NNW,328,6.7,6.7,36,0.00,,---,0.00,VWS V14.01,2014-02-28 22:20:00,
2014-02-28 14:25:00,58.5,30.9,28.70,WSW,248,5.4,6.7,35,0.00,,---,0.00,VWS V14.01,2014-02-28 22:25:00,
2014-02-28 14:30:00,59.2,31.6,28.70,West,268,3.6,6.9,35,0.00,,---,0.00,VWS V14.01,2014-02-28 22:30:00,
2014-02-28 14:36:00,59.2,31.6,28.70,SE,145,6.9,10.1,35,0.00,,---,0.00,VWS V14.01,2014-02-28 22:36:00,
2014-02-28 14:41:00,59.0,31.4,28.70,South,179,8.3,8.3,35,0.00,,---,0.00,VWS V14.01,2014-02-28 22:41:00,
2014-02-28 14:46:00,58.8,23.1,28.70,SSW,198,7.8,7.8,25,0.00,,---,0.00,VWS V14.01,2014-02-28 22:46:00,
2014-02-28 14:52:00,58.5,22.8,28.70,SSW,196,6.9,8.3,25,0.00,,---,0.00,VWS V14.01,2014-02-28 22:52:00,
2014-02-28 14:57:00,57.6,22.0,28.70,SSW,193,11.2,11.2,25,0.00,,---,0.00,VWS V14.01,2014-02-28 22:57:00,
2014-02-28 15:03:00,56.8,21.4,28.70,South,176,8.7,8.7,25,0.00,,---,0.00,VWS V14.01,2014-02-28 23:03:00,
2014-02-28 15:08:00,56.5,21.1,28.70,South,169,9.6,9.6,25,0.00,,---,0.00,VWS V14.01,2014-02-28 23:08:00,
2014-02-28 15:13:00,56.7,24.8,28.70,SSE,155,5.4,5.4,29,0.00,,---,0.00,VWS V14.01,2014-02-28 23:13:00,
2014-02-28 15:18:00,56.8,24.9,28.70,SSE,162,3.6,3.6,29,0.00,,---,0.00,VWS V14.01,2014-02-28 23:18:00,
2014-02-28 15:23:00,57.4,24.6,28.70,SSE,158,5.4,5.4,28,0.00,,---,0.00,VWS V14.01,2014-02-28 23:23:00,
2014-02-28 15:28:00,57.7,24.0,28.70,South,169,6.7,6.7,27,0.00,,---,0.00,VWS V14.01,2014-02-28 23:28:00,
2014-02-28 15:33:00,58.1,24.3,28.70,SE,140,8.7,8.7,27,0.00,,---,0.00,VWS V14.01,2014-02-28 23:33:00,
2014-02-28 15:38:00,57.9,24.2,28.70,SE,124,6.9,6.9,27,0.00,,---,0.00,VWS V14.01,2014-02-28 23:38:00,
2014-02-28 15:43:00,58.1,23.4,28.70,SSE,153,5.8,5.8,26,0.00,,---,0.00,VWS V14.01,2014-02-28 23:43:00,
2014-02-28 15:44:00,58.1,23.4,28.70,SSE,153,5.8,5.8,26,0.00,,---,0.00,VWS V14.01,2014-02-28 23:44:00,
2014-02-28 15:49:00,58.8,24.0,28.70,South,171,9.2,9.2,26,0.00,,---,0.00,VWS V14.01,2014-02-28 23:49:00,
2014-02-28 15:54:00,58.8,24.0,28.70,SSW,195,10.5,10.5,26,0.00,,---,0.00,VWS V14.01,2014-02-28 23:54:00,
2014-02-28 15:59:00,58.3,23.6,28.70,SW,233,11.0,11.0,26,0.00,,---,0.00,VWS V14.01,2014-02-28 23:59:00,
2014-02-28 16:04:00,57.6,23.9,28.70,SW,231,11.6,11.6,27,0.00,,---,0.00,VWS V14.01,2014-03-01 00:04:00,
2014-02-28 16:09:00,56.7,23.1,28.70,SSW,195,6.7,6.7,27,0.00,,---,0.00,VWS V14.01,2014-03-01 00:09:00,
2014-02-28 16:14:00,56.7,29.3,28.73,SSW,192,9.2,11.2,35,0.00,,---,0.00,VWS V14.01,2014-03-01 00:14:00,
2014-02-28 16:19:00,56.5,29.2,28.73,SSW,211,8.3,11.0,35,0.00,,---,0.00,VWS V14.01,2014-03-01 00:19:00,
2014-02-28 16:24:00,56.5,29.2,28.73,SW,220,7.4,7.4,35,0.00,,---,0.00,VWS V14.01,2014-03-01 00:24:00,
2014-02-28 16:29:00,56.3,29.0,28.73,SSW,212,7.8,7.8,35,0.00,,---,0.00,VWS V14.01,2014-03-01 00:29:00,
2014-02-28 16:35:00,54.7,27.6,28.73,South,191,7.8,7.8,35,0.00,,---,0.00,VWS V14.01,2014-03-01 00:35:00,
2014-02-28 16:40:00,54.9,35.6,28.73,SSW,203,6.9,7.4,48,0.00,,---,0.00,VWS V14.01,2014-03-01 00:40:00,
2014-02-28 16:45:00,55.2,36.4,28.73,SSW,210,6.3,7.4,49,0.00,,---,0.00,VWS V14.01,2014-03-01 00:45:00,
2014-02-28 16:50:00,55.4,36.6,28.73,SSW,195,5.8,7.4,49,0.00,,---,0.00,VWS V14.01,2014-03-01 00:50:00,
2014-02-28 16:55:00,55.4,35.5,28.73,South,191,6.7,7.8,47,0.00,,---,0.00,VWS V14.01,2014-03-01 00:55:00,
2014-02-28 17:00:00,55.0,34.7,28.73,South,190,5.8,6.7,46,0.00,,---,0.00,VWS V14.01,2014-03-01 01:00:00,
2014-02-28 17:05:00,54.9,34.5,28.73,SSE,157,6.3,6.7,46,0.00,,---,0.00,VWS V14.01,2014-03-01 01:05:00,
2014-02-28 17:10:00,55.0,35.2,28.73,SSE,150,8.7,8.7,47,0.00,,---,0.00,VWS V14.01,2014-03-01 01:10:00,
2014-02-28 17:15:00,55.4,35.5,28.73,SSE,161,7.4,7.4,47,0.00,,---,0.00,VWS V14.01,2014-03-01 01:15:00,
2014-02-28 17:20:00,55.6,28.4,28.73,SSE,158,7.4,7.8,35,0.00,,---,0.00,VWS V14.01,2014-03-01 01:20:00,
2014-02-28 17:26:00,55.8,28.5,28.73,SSE,161,4.5,4.5,35,0.00,,---,0.00,VWS V14.01,2014-03-01 01:26:00,
2014-02-28 17:31:00,55.9,28.7,28.73,SSE,162,2.7,3.6,35,0.00,,---,0.00,VWS V14.01,2014-03-01 01:31:00,
2014-02-28 17:36:00,55.9,26.5,28.73,South,179,0.0,0.0,32,0.00,,---,0.00,VWS V14.01,2014-03-01 01:36:00,
2014-02-28 17:41:00,56.1,26.7,28.73,SSE,167,6.9,7.4,32,0.00,,---,0.00,VWS V14.01,2014-03-01 01:41:00,
2014-02-28 17:46:00,56.1,24.3,28.73,South,183,5.8,6.9,29,0.00,,---,0.00,VWS V14.01,2014-03-01 01:46:00,
2014-02-28 17:51:00,56.1,23.5,28.73,South,190,6.7,8.3,28,0.00,,---,0.00,VWS V14.01,2014-03-01 01:51:00,
2014-02-28 17:56:00,55.9,24.2,28.73,SSE,160,6.3,6.9,29,0.00,,---,0.00,VWS V14.01,2014-03-01 01:56:00,
2014-02-28 18:01:00,55.8,24.0,28.73,South,189,6.3,9.2,29,0.00,,---,0.00,VWS V14.01,2014-03-01 02:01:00,
2014-02-28 18:06:00,55.6,23.9,28.73,SSW,198,4.9,4.9,29,0.00,,---,0.00,VWS V14.01,2014-03-01 02:06:00,
2014-02-28 18:11:00,55.6,23.9,28.73,SSW,208,6.3,6.3,29,0.00,,---,0.00,VWS V14.01,2014-03-01 02:11:00,
2014-02-28 18:16:00,55.4,24.5,28.73,South,189,5.8,6.3,30,0.00,,---,0.00,VWS V14.01,2014-03-01 02:16:00,
2014-02-28 18:21:00,55.0,24.2,28.73,SSW,206,5.4,5.4,30,0.00,,---,0.00,VWS V14.01,2014-03-01 02:21:00,
2014-02-28 18:26:00,54.7,23.9,28.73,South,170,2.7,3.6,30,0.00,,---,0.00,VWS V14.01,2014-03-01 02:26:00,
2014-02-28 18:32:00,54.0,24.0,28.73,South,170,0.0,0.0,31,0.00,,---,0.00,VWS V14.01,2014-03-01 02:32:00,
2014-02-28 18:37:00,53.6,23.7,28.73,SSE,160,0.0,0.0,31,0.00,,---,0.00,VWS V14.01,2014-03-01 02:37:00,
2014-02-28 18:42:00,53.4,24.3,28.73,SSE,160,0.0,0.0,32,0.00,,---,0.00,VWS V14.01,2014-03-01 02:42:00,
2014-02-28 18:47:00,53.1,25.5,28.76,WNW,282,3.6,3.6,34,0.00,,---,0.00,VWS V14.01,2014-03-01 02:47:00,
2014-02-28 18:52:00,52.7,25.1,28.76,WNW,291,3.1,3.6,34,0.00,,---,0.00,VWS V14.01,2014-03-01 02:52:00,
2014-02-28 18:57:00,52.0,25.9,28.76,West,276,4.5,4.5,36,0.00,,---,0.00,VWS V14.01,2014-03-01 02:57:00,
2014-02-28 19:02:00,51.6,25.6,28.76,SW,228,5.4,5.4,36,0.00,,---,0.00,VWS V14.01,2014-03-01 03:02:00,
2014-02-28 19:07:00,51.6,25.6,28.76,SW,221,4.0,4.0,36,0.00,,---,0.00,VWS V14.01,2014-03-01 03:07:00,
2014-02-28 19:12:00,51.3,25.2,28.76,SW,220,0.0,0.0,36,0.00,,---,0.00,VWS V14.01,2014-03-01 03:12:00,
2014-02-28 19:17:00,51.3,25.2,28.76,SW,220,0.0,0.0,36,0.00,,---,0.00,VWS V14.01,2014-03-01 03:17:00,
2014-02-28 19:22:00,51.3,28.4,28.76,SW,223,0.0,0.0,41,0.00,,---,0.00,VWS V14.01,2014-03-01 03:22:00,
2014-02-28 19:27:00,51.4,29.1,28.76,SW,223,0.0,0.0,42,0.00,,---,0.00,VWS V14.01,2014-03-01 03:27:00,
2014-02-28 19:32:00,51.4,28.5,28.76,SW,223,0.0,0.0,41,0.00,,---,0.00,VWS V14.01,2014-03-01 03:32:00,
2014-02-28 19:37:00,51.1,28.8,28.76,SW,223,0.0,0.0,42,0.00,,---,0.00,VWS V14.01,2014-03-01 03:37:00,
2014-02-28 19:42:00,50.7,29.1,28.76,SW,223,0.0,0.0,43,0.00,,---,0.00,VWS V14.01,2014-03-01 03:42:00,
2014-02-28 19:47:00,51.1,31.0,28.76,SW,223,0.0,0.0,46,0.00,,---,0.00,VWS V14.01,2014-03-01 03:47:00,
2014-02-28 19:52:00,50.9,31.4,28.76,East,89,0.0,2.7,47,0.00,,---,0.00,VWS V14.01,2014-03-01 03:52:00,
2014-02-28 19:57:00,51.6,31.5,28.76,NE,47,5.8,6.7,46,0.00,,---,0.00,VWS V14.01,2014-03-01 03:57:00,
2014-02-28 20:02:00,52.0,30.8,28.76,NE,45,5.8,5.8,44,0.00,,---,0.00,VWS V14.01,2014-03-01 04:02:00,
2014-02-28 20:07:00,51.4,30.8,28.76,ENE,60,6.7,6.7,45,0.00,,---,0.00,VWS V14.01,2014-03-01 04:07:00,
2014-02-28 20:12:00,51.6,30.4,28.76,NE,53,6.7,6.9,44,0.00,,---,0.00,VWS V14.01,2014-03-01 04:12:00,
2014-02-28 20:17:00,51.8,30.0,28.79,ENE,66,4.9,6.3,43,0.00,,---,0.00,VWS V14.01,2014-03-01 04:17:00,
2014-02-28 20:23:00,51.8,29.5,28.79,East,83,4.0,4.0,42,0.00,,---,0.00,VWS V14.01,2014-03-01 04:23:00,
2014-02-28 20:28:00,51.6,28.7,28.79,East,86,4.0,4.0,41,0.00,,---,0.00,VWS V14.01,2014-03-01 04:28:00,
2014-02-28 20:33:00,51.4,28.5,28.79,East,87,4.0,4.9,41,0.00,,---,0.00,VWS V14.01,2014-03-01 04:33:00,
2014-02-28 20:39:00,51.4,28.5,28.79,ENE,75,4.5,4.9,41,0.00,,---,0.00,VWS V14.01,2014-03-01 04:39:00,
2014-02-28 20:44:00,51.6,27.5,28.79,East,81,4.0,4.0,39,0.00,,---,0.00,VWS V14.01,2014-03-01 04:44:00,
2014-02-28 20:49:00,51.8,27.0,28.79,East,86,4.9,4.9,38,0.00,,---,0.00,VWS V14.01,2014-03-01 04:49:00,
2014-02-28 20:54:00,51.8,27.0,28.79,East,88,3.6,3.6,38,0.00,,---,0.00,VWS V14.01,2014-03-01 04:54:00,
2014-02-28 20:59:00,51.6,26.2,28.79,SE,126,0.0,3.1,37,0.00,,---,0.00,VWS V14.01,2014-03-01 04:59:00,
2014-02-28 21:01:00,51.6,26.2,28.79,SE,124,2.7,2.7,37,0.00,,---,0.00,VWS V14.01,2014-03-01 05:01:00,
2014-02-28 21:03:00,51.6,26.2,28.79,SE,124,0.0,3.1,37,0.00,,---,0.00,VWS V14.01,2014-03-01 05:03:00,
2014-02-28 21:04:00,51.6,26.2,28.79,SE,124,0.0,0.0,37,0.00,,---,0.00,VWS V14.01,2014-03-01 05:04:00,
2014-02-28 21:06:00,51.6,26.2,28.79,SE,124,0.0,0.0,37,0.00,,---,0.00,VWS V14.01,2014-03-01 05:06:00,
2014-02-28 21:07:00,51.6,26.2,28.79,SE,124,0.0,0.0,37,0.00,,---,0.00,VWS V14.01,2014-03-01 05:07:00,
2014-02-28 21:11:00,51.6,26.2,28.79,SSE,167,0.0,2.7,37,0.00,,---,0.00,VWS V14.01,2014-03-01 05:11:00,
2014-02-28 21:16:00,52.0,25.9,28.79,ESE,113,3.6,3.6,36,0.00,,---,0.00,VWS V14.01,2014-03-01 05:16:00,
2014-02-28 21:21:00,52.5,26.4,28.79,East,91,4.0,4.0,36,0.00,,---,0.00,VWS V14.01,2014-03-01 05:21:00,
2014-02-28 21:26:00,53.1,24.0,28.79,ESE,122,4.9,6.3,32,0.00,,---,0.00,VWS V14.01,2014-03-01 05:26:00,
2014-02-28 21:32:00,54.0,24.0,28.79,SE,131,5.4,5.4,31,0.00,,---,0.00,VWS V14.01,2014-03-01 05:32:00,
2014-02-28 21:37:00,53.2,25.6,28.79,East,86,5.4,5.8,34,0.00,,---,0.00,VWS V14.01,2014-03-01 05:37:00,
2014-02-28 21:42:00,52.9,27.3,28.79,ESE,104,5.8,5.8,37,0.00,,---,0.00,VWS V14.01,2014-03-01 05:42:00,
2014-02-28 21:48:00,52.9,27.3,28.79,East,88,9.2,9.2,37,0.00,,---,0.00,VWS V14.01,2014-03-01 05:48:00,
2014-02-28 21:53:00,53.4,27.1,28.79,East,100,6.7,6.7,36,0.00,,---,0.00,VWS V14.01,2014-03-01 05:53:00,
2014-02-28 21:59:00,54.0,27.0,28.79,East,101,9.6,10.5,35,0.00,,---,0.00,VWS V14.01,2014-03-01 05:59:00,
2014-02-28 22:04:00,54.5,25.3,28.79,ESE,109,6.7,6.9,32,0.00,,---,0.00,VWS V14.01,2014-03-01 06:04:00,
2014-02-28 22:09:00,54.3,25.1,28.79,East,92,9.6,10.1,32,0.00,,---,0.00,VWS V14.01,2014-03-01 06:09:00,
2014-02-28 22:14:00,54.3,24.4,28.82,ESE,113,5.8,11.0,31,0.00,,---,0.00,VWS V14.01,2014-03-01 06:14:00,
2014-02-28 22:19:00,54.5,25.3,28.82,East,92,12.1,12.1,32,0.00,,---,0.00,VWS V14.01,2014-03-01 06:19:00,
2014-02-28 22:25:00,54.1,25.7,28.82,East,83,6.9,7.4,33,0.00,,---,0.00,VWS V14.01,2014-03-01 06:25:00,
2014-02-28 22:31:00,53.8,26.8,28.79,ENE,69,9.6,11.0,35,0.00,,---,0.00,VWS V14.01,2014-03-01 06:31:00,
2014-02-28 22:36:00,53.2,28.3,28.79,ENE,69,9.6,11.2,38,0.00,,---,0.00,VWS V14.01,2014-03-01 06:36:00,
2014-02-28 22:42:00,53.1,28.8,28.79,East,82,11.0,11.0,39,0.00,,---,0.00,VWS V14.01,2014-03-01 06:42:00,
2014-02-28 22:47:00,53.2,27.7,28.82,East,88,7.4,10.1,37,0.00,,---,0.00,VWS V14.01,2014-03-01 06:47:00,
2014-02-28 22:52:00,53.6,28.0,28.82,East,92,7.4,7.4,37,0.00,,---,0.00,VWS V14.01,2014-03-01 06:52:00,
2014-02-28 22:58:00,54.5,27.4,28.82,ESE,104,11.0,11.6,35,0.00,,---,0.00,VWS V14.01,2014-03-01 06:58:00,
2014-02-28 23:04:00,54.9,25.6,28.82,ESE,109,10.5,14.8,32,0.00,,---,0.00,VWS V14.01,2014-03-01 07:04:00,
2014-02-28 23:09:00,55.0,25.0,28.82,East,94,9.6,10.5,31,0.00,,---,0.00,VWS V14.01,2014-03-01 07:09:00,
2014-02-28 23:14:00,55.0,24.2,28.82,East,97,11.2,11.2,30,0.00,,---,0.00,VWS V14.01,2014-03-01 07:14:00,
2014-02-28 23:19:00,55.0,24.2,28.82,ESE,103,11.6,11.6,30,0.00,,---,0.00,VWS V14.01,2014-03-01 07:19:00,
2014-02-28 23:24:00,54.9,24.8,28.82,ESE,118,6.9,7.8,31,0.00,,---,0.00,VWS V14.01,2014-03-01 07:24:00,
2014-02-28 23:29:00,54.5,26.0,28.82,SE,139,8.3,8.3,33,0.00,,---,0.00,VWS V14.01,2014-03-01 07:29:00,
2014-02-28 23:34:00,54.3,25.9,28.82,SE,127,6.9,6.9,33,0.00,,---,0.00,VWS V14.01,2014-03-01 07:34:00,
2014-02-28 23:39:00,54.3,26.6,28.82,SE,131,6.9,7.4,34,0.00,,---,0.00,VWS V14.01,2014-03-01 07:39:00,
2014-02-28 23:44:00,54.1,27.8,28.82,East,95,5.4,6.9,36,0.00,,---,0.00,VWS V14.01,2014-03-01 07:44:00,
2014-02-28 23:49:00,53.2,28.9,28.82,East,97,8.3,9.6,39,0.00,,---,0.00,VWS V14.01,2014-03-01 07:49:00,
2014-02-28 23:55:00,52.9,33.7,28.82,ENE,66,8.3,11.0,48,0.00,,---,0.00,VWS V14.01,2014-03-01 07:55:00,